START_TIME,STEP,MOV.,M34,t_acc.,L5,t_acc.,L18,t_acc.,L14,t_acc.
1979-07-03 00:00:25.560 ,0,0,0.,12.0,0.,12.0,0.,12.0,0.,12.0
1979-07-03 00:00:37.560 ,0,0,0.,12.0,0.,12.0,0.,12.0,0.,12.0
1979-07-03 00:00:49.560 ,1,1,0.,12.0,0.,12.0,0.,12.0,0.,12.0
1979-07-03 00:01:01.560 ,1,1,0.,12.0,0.,12.0,0.,12.0,0.,12.0
1979-07-03 00:01:13.560 ,1,0,0.,12.0,0.,12.0,0.,12.0,0.,12.0
1979-07-03 00:01:25.560 ,1,0,0.,12.0,0.,12.0,0.,12.0,0.,12.0
1979-07-03 00:01:37.560 ,2,1,0.,12.0,0.,12.0,0.,12.0,0.,12.0
1979-07-03 00:01:49.560 ,2,1,0.,12.0,0.,12.0,0.,12.0,0.,12.0
1979-07-03 00:02:01.560 ,2,0,0.,12.0,0.,12.0,0.,12.0,0.,12.0
1979-07-03 00:02:13.560 ,2,0,0.,12.0,0.,12.0,0.,12.0,0.,12.0
1979-07-03 00:02:25.550 ,3,1,0.,12.0,0.,12.0,0.,12.0,0.,12.0
1979-07-03 00:02:37.560 ,3,1,0.,12.0,0.,12.0,0.,12.0,0.,12.0
1979-07-03 00:02:49.550 ,3,0,0.,12.0,0.,12.0,0.,12.0,0.,12.0
1979-07-03 00:03:01.560 ,3,0,0.,12.0,0.,12.0,0.,12.0,0.,12.0
1979-07-03 00:03:13.550 ,4,1,0.,12.0,0.,12.0,0.,12.0,0.,12.0
1979-07-03 00:03:25.560 ,4,1,0.,12.0,0.,12.0,0.,12.0,0.,12.0
1979-07-03 00:03:37.550 ,4,0,0.,12.0,0.,12.0,0.,12.0,0.,12.0
1979-07-03 00:03:49.560 ,4,0,0.,12.0,0.,12.0,0.,12.0,0.,12.0
1979-07-03 00:04:01.550 ,5,1,0.,12.0,0.,12.0,0.,12.0,0.,12.0
1979-07-03 00:04:13.550 ,5,1,0.,12.0,0.,12.0,0.,12.0,0.,12.0
1979-07-03 00:04:25.560 ,5,0,0.,12.0,0.,12.0,0.,12.0,0.,12.0
1979-07-03 00:04:37.560 ,5,0,0.,12.0,0.,12.0,0.,12.0,0.,12.0
1979-07-03 00:04:49.560 ,6,1,0.,12.0,0.,12.0,0.,12.0,0.,12.0
1979-07-03 00:05:01.560 ,6,1,0.,12.0,0.,12.0,0.,12.0,0.,12.0
1979-07-03 00:05:13.560 ,6,0,0.,12.0,0.,12.0,0.,12.0,0.,12.0
1979-07-03 00:05:25.560 ,6,0,0.,12.0,0.,12.0,0.,12.0,0.,12.0
1979-07-03 00:05:37.560 ,7,1,0.,12.0,0.,12.0,0.,12.0,0.,12.0
1979-07-03 00:05:49.560 ,7,1,0.,12.0,0.,12.0,0.,12.0,0.,12.0
1979-07-03 00:06:01.560 ,7,0,0.,12.0,0.,12.0,0.,12.0,0.,12.0
1979-07-03 00:06:13.560 ,7,0,0.,12.0,0.,12.0,0.,12.0,0.,12.0
1979-07-03 00:06:25.560 ,7,1,0.,12.0,0.,12.0,0.,12.0,0.,12.0
1979-07-03 00:06:37.560 ,7,1,0.,12.0,0.,12.0,0.,12.0,0.,12.0
1979-07-03 00:06:49.560 ,7,0,0.,12.0,0.,12.0,0.,12.0,0.,12.0
1979-07-03 00:07:01.560 ,7,0,0.,12.0,0.,12.0,0.,12.0,0.,12.0
1979-07-03 00:07:13.560 ,6,1,0.,12.0,0.,12.0,0.,12.0,0.,12.0
1979-07-03 00:07:25.560 ,6,1,0.,12.0,0.,12.0,0.,12.0,0.,12.0
1979-07-03 00:07:37.560 ,6,0,0.,12.0,0.,12.0,0.,12.0,0.,12.0
1979-07-03 00:07:49.560 ,6,0,0.,12.0,0.,12.0,0.,12.0,0.,12.0
1979-07-03 00:08:01.560 ,5,1,0.,12.0,0.,12.0,0.,12.0,0.,12.0
1979-07-03 00:08:13.560 ,5,1,0.,12.0,0.,12.0,0.,12.0,0.,12.0
1979-07-03 00:08:25.560 ,5,0,0.,12.0,0.,12.0,0.,12.0,0.,12.0
1979-07-03 00:08:37.550 ,5,0,0.,12.0,0.,12.0,0.,12.0,0.,12.0
1979-07-03 00:08:49.550 ,4,1,0.,12.0,0.,12.0,0.,12.0,0.,12.0
1979-07-03 00:09:01.550 ,4,1,0.,12.0,0.,12.0,0.,12.0,0.,12.0
1979-07-03 00:09:13.550 ,4,0,0.,12.0,0.,12.0,0.,12.0,0.,12.0
1979-07-03 00:09:25.550 ,4,0,0.,12.0,0.,12.0,0.,12.0,0.,12.0
1979-07-03 00:09:37.550 ,3,1,0.,12.0,0.,12.0,0.,12.0,0.,12.0
1979-07-03 00:09:49.550 ,3,1,1.,12.0,0.,12.0,0.,12.0,0.,12.0
1979-07-03 00:10:01.550 ,3,0,0.,12.0,0.,12.0,0.,12.0,0.,12.0
1979-07-03 00:10:13.550 ,3,0,0.,12.0,0.,12.0,0.,12.0,0.,12.0
1979-07-03 00:10:25.550 ,2,1,0.,12.0,0.,12.0,0.,12.0,0.,12.0
1979-07-03 00:10:37.550 ,2,1,0.,12.0,0.,12.0,0.,12.0,0.,12.0
1979-07-03 00:10:49.550 ,2,0,0.,12.0,0.,12.0,0.,12.0,0.,12.0
1979-07-03 00:11:01.550 ,2,0,0.,12.0,0.,12.0,0.,12.0,0.,12.0
1979-07-03 00:11:13.550 ,1,1,0.,12.0,0.,12.0,0.,12.0,0.,12.0
1979-07-03 00:11:25.550 ,1,1,0.,12.0,0.,12.0,0.,12.0,0.,12.0
1979-07-03 00:11:37.550 ,1,0,0.,12.0,0.,12.0,0.,12.0,0.,12.0
1979-07-03 00:11:49.550 ,1,0,1.,12.0,0.,12.0,0.,12.0,0.,12.0
1979-07-03 00:12:01.550 ,0,1,0.,12.0,0.,12.0,0.,12.0,0.,12.0
1979-07-03 00:12:13.550 ,0,1,0.,12.0,0.,12.0,0.,12.0,0.,12.0
1979-07-03 00:12:25.550 ,0,0,0.,12.0,0.,12.0,0.,12.0,0.,12.0
1979-07-03 00:12:37.550 ,0,0,0.,12.0,0.,12.0,0.,12.0,0.,12.0
1979-07-03 00:12:49.550 ,0,1,0.,12.0,0.,12.0,0.,12.0,0.,12.0
1979-07-03 00:13:01.550 ,0,1,0.,12.0,0.,12.0,0.,12.0,0.,12.0
1979-07-03 00:13:13.550 ,0,0,0.,12.0,0.,12.0,0.,12.0,0.,12.0
1979-07-03 00:13:25.550 ,0,0,0.,12.0,0.,12.0,0.,12.0,0.,12.0
1979-07-03 00:13:37.550 ,1,1,0.,12.0,0.,12.0,0.,12.0,0.,12.0
1979-07-03 00:13:49.550 ,1,1,0.,12.0,0.,12.0,0.,12.0,0.,12.0
1979-07-03 00:14:01.550 ,1,0,0.,12.0,0.,12.0,0.,12.0,0.,12.0
1979-07-03 00:14:13.550 ,1,0,0.,12.0,0.,12.0,0.,12.0,0.,12.0
1979-07-03 00:14:25.550 ,2,1,0.,12.0,0.,12.0,0.,12.0,0.,12.0
1979-07-03 00:14:37.550 ,2,1,0.,12.0,0.,12.0,0.,12.0,0.,12.0
1979-07-03 00:14:49.550 ,2,0,0.,12.0,0.,12.0,0.,12.0,0.,12.0
1979-07-03 00:15:01.550 ,2,0,0.,12.0,0.,12.0,0.,12.0,0.,12.0
1979-07-03 00:15:13.550 ,3,1,0.,12.0,0.,12.0,0.,12.0,0.,12.0
1979-07-03 00:15:25.550 ,3,1,0.,12.0,0.,12.0,0.,12.0,0.,12.0
1979-07-03 00:15:37.550 ,3,0,0.,12.0,0.,12.0,0.,12.0,0.,12.0
1979-07-03 00:15:49.550 ,3,0,0.,12.0,0.,12.0,0.,12.0,0.,12.0
1979-07-03 00:16:01.550 ,4,1,0.,12.0,0.,12.0,0.,12.0,0.,12.0
1979-07-03 00:16:13.550 ,4,1,0.,12.0,0.,12.0,0.,12.0,0.,12.0
1979-07-03 00:16:25.550 ,4,0,0.,12.0,0.,12.0,0.,12.0,0.,12.0
1979-07-03 00:16:37.550 ,4,0,0.,12.0,0.,12.0,0.,12.0,0.,12.0
1979-07-03 00:16:49.550 ,5,1,0.,12.0,0.,12.0,0.,12.0,0.,12.0
1979-07-03 00:17:01.550 ,5,1,0.,12.0,0.,12.0,0.,12.0,0.,12.0
1979-07-03 00:17:13.550 ,5,0,0.,12.0,0.,12.0,0.,12.0,0.,12.0
1979-07-03 00:17:25.550 ,5,0,0.,12.0,0.,12.0,0.,12.0,1.,12.0
1979-07-03 00:17:37.550 ,6,1,0.,12.0,0.,12.0,0.,12.0,0.,12.0
1979-07-03 00:17:49.550 ,6,1,0.,12.0,0.,12.0,0.,12.0,0.,12.0
1979-07-03 00:18:01.550 ,6,0,0.,12.0,0.,12.0,0.,12.0,0.,12.0
1979-07-03 00:18:13.550 ,6,0,0.,12.0,0.,12.0,0.,12.0,0.,12.0
1979-07-03 00:18:25.550 ,7,0,0.,12.0,0.,12.0,0.,12.0,0.,12.0
1979-07-03 00:18:37.550 ,7,0,0.,12.0,0.,12.0,0.,12.0,0.,12.0
1979-07-03 00:18:49.550 ,7,0,0.,12.0,0.,12.0,0.,12.0,0.,12.0
1979-07-03 00:19:01.550 ,7,0,0.,12.0,0.,12.0,0.,12.0,0.,12.0
1979-07-03 00:19:13.550 ,4,1,0.,12.0,0.,12.0,0.,12.0,0.,12.0
1979-07-03 00:19:25.550 ,4,1,0.,12.0,0.,12.0,0.,12.0,0.,12.0
1979-07-03 00:19:37.550 ,0,1,0.,12.0,0.,12.0,0.,12.0,0.,12.0
1979-07-03 00:19:49.550 ,0,1,0.,12.0,0.,12.0,0.,12.0,0.,12.0
1979-07-03 00:20:01.550 ,3,1,0.,12.0,0.,12.0,0.,12.0,0.,12.0
1979-07-03 00:20:13.550 ,3,1,0.,12.0,0.,12.0,0.,12.0,0.,12.0
1979-07-03 00:20:25.550 ,7,1,0.,12.0,0.,12.0,0.,12.0,0.,12.0
1979-07-03 00:20:37.550 ,7,1,0.,12.0,0.,12.0,0.,12.0,0.,12.0
1979-07-03 00:20:49.550 ,4,1,0.,12.0,0.,12.0,0.,12.0,0.,12.0
1979-07-03 00:21:01.550 ,4,1,0.,12.0,0.,12.0,0.,12.0,0.,12.0
1979-07-03 00:21:13.550 ,0,1,0.,12.0,0.,12.0,0.,12.0,0.,12.0
1979-07-03 00:21:25.550 ,0,1,0.,12.0,0.,12.0,0.,12.0,0.,12.0
1979-07-03 00:21:37.550 ,3,1,0.,12.0,0.,12.0,0.,12.0,0.,12.0
1979-07-03 00:21:49.550 ,3,1,0.,12.0,0.,12.0,0.,12.0,0.,12.0
1979-07-03 00:22:01.550 ,7,1,0.,12.0,0.,12.0,0.,12.0,0.,12.0
1979-07-03 00:22:13.550 ,7,1,0.,12.0,0.,12.0,0.,12.0,0.,12.0
1979-07-03 00:22:25.550 ,4,1,0.,12.0,0.,12.0,0.,12.0,0.,12.0
1979-07-03 00:22:37.550 ,4,1,0.,12.0,0.,12.0,0.,12.0,0.,12.0
1979-07-03 00:22:49.550 ,0,1,0.,12.0,0.,12.0,0.,12.0,0.,12.0
1979-07-03 00:23:01.550 ,0,1,0.,12.0,0.,12.0,0.,12.0,0.,12.0
1979-07-03 00:23:13.550 ,3,1,0.,12.0,0.,12.0,0.,12.0,0.,12.0
1979-07-03 00:23:25.550 ,3,1,0.,12.0,0.,12.0,0.,12.0,0.,12.0
1979-07-03 00:23:37.550 ,7,1,0.,12.0,0.,12.0,0.,12.0,0.,12.0
1979-07-03 00:23:49.550 ,7,1,0.,12.0,0.,12.0,0.,12.0,0.,12.0
1979-07-03 00:24:01.550 ,4,1,0.,12.0,0.,12.0,0.,12.0,0.,12.0
1979-07-03 00:24:13.550 ,4,1,0.,12.0,0.,12.0,0.,12.0,0.,12.0
1979-07-03 00:24:25.550 ,0,1,0.,12.0,0.,12.0,0.,12.0,0.,12.0
1979-07-03 00:24:37.550 ,0,1,0.,12.0,0.,12.0,0.,12.0,0.,12.0
1979-07-03 00:24:49.550 ,3,1,0.,12.0,0.,12.0,0.,12.0,0.,12.0
1979-07-03 00:25:01.550 ,3,1,0.,12.0,0.,12.0,0.,12.0,0.,12.0
1979-07-03 00:25:13.550 ,7,1,0.,12.0,0.,12.0,0.,12.0,0.,12.0
1979-07-03 00:25:25.550 ,7,1,0.,12.0,0.,12.0,0.,12.0,0.,12.0
1979-07-03 00:25:37.550 ,4,1,0.,12.0,0.,12.0,0.,12.0,0.,12.0
1979-07-03 00:25:49.550 ,4,1,0.,12.0,0.,12.0,0.,12.0,0.,12.0
1979-07-03 00:26:01.550 ,0,1,0.,12.0,0.,12.0,0.,12.0,0.,12.0
1979-07-03 00:26:13.550 ,0,1,0.,12.0,0.,12.0,0.,12.0,0.,12.0
1979-07-03 00:26:25.550 ,3,1,0.,12.0,0.,12.0,0.,12.0,0.,12.0
1979-07-03 00:26:37.550 ,3,1,0.,12.0,0.,12.0,0.,12.0,0.,12.0
1979-07-03 00:26:49.550 ,7,1,0.,12.0,0.,12.0,0.,12.0,0.,12.0
1979-07-03 00:27:01.550 ,7,1,0.,12.0,0.,12.0,0.,12.0,0.,12.0
1979-07-03 00:27:13.550 ,4,1,0.,12.0,0.,12.0,0.,12.0,0.,12.0
1979-07-03 00:27:25.550 ,4,1,0.,12.0,0.,12.0,0.,12.0,0.,12.0
1979-07-03 00:27:37.550 ,0,1,0.,12.0,0.,12.0,0.,12.0,0.,12.0
1979-07-03 00:27:49.550 ,0,1,0.,12.0,0.,12.0,0.,12.0,0.,12.0
1979-07-03 00:28:01.550 ,3,1,0.,12.0,0.,12.0,0.,12.0,0.,12.0
1979-07-03 00:28:13.550 ,3,1,0.,12.0,0.,12.0,0.,12.0,0.,12.0
1979-07-03 00:28:25.550 ,7,1,0.,12.0,0.,12.0,0.,12.0,0.,12.0
1979-07-03 00:28:37.550 ,7,1,0.,12.0,0.,12.0,0.,12.0,0.,12.0
1979-07-03 00:28:49.550 ,4,1,0.,12.0,0.,12.0,0.,12.0,0.,12.0
1979-07-03 00:29:01.550 ,4,1,0.,12.0,0.,12.0,0.,12.0,0.,12.0
1979-07-03 00:29:13.550 ,0,1,0.,12.0,0.,12.0,0.,12.0,0.,12.0
1979-07-03 00:29:25.550 ,0,1,0.,12.0,0.,12.0,0.,12.0,0.,12.0
1979-07-03 00:29:37.550 ,0,0,0.,12.0,0.,12.0,0.,12.0,0.,12.0
1979-07-03 00:29:49.550 ,0,0,0.,12.0,0.,12.0,0.,12.0,0.,12.0
1979-07-03 00:30:01.550 ,0,0,0.,12.0,0.,12.0,0.,12.0,0.,12.0
1979-07-03 00:30:13.550 ,0,0,0.,12.0,0.,12.0,0.,12.0,1.,12.0
1979-07-03 00:30:25.550 ,5,1,0.,12.0,0.,12.0,0.,12.0,0.,12.0
1979-07-03 00:30:37.550 ,5,1,0.,12.0,0.,12.0,0.,12.0,0.,12.0
1979-07-03 00:30:49.550 ,5,0,0.,12.0,0.,12.0,0.,12.0,0.,12.0
1979-07-03 00:31:01.550 ,5,0,0.,12.0,0.,12.0,0.,12.0,0.,12.0
1979-07-03 00:32:01.550 ,0,0,0.,12.0,0.,12.0,0.,12.0,0.,12.0
1979-07-03 00:32:13.550 ,0,0,0.,12.0,0.,12.0,0.,12.0,0.,12.0
1979-07-03 00:32:25.550 ,0,0,0.,12.0,0.,12.0,0.,12.0,0.,12.0
1979-07-03 00:32:37.550 ,0,0,0.,12.0,0.,12.0,0.,12.0,0.,12.0
1979-07-03 00:32:49.550 ,2,1,0.,12.0,0.,12.0,0.,12.0,0.,12.0
1979-07-03 00:33:01.550 ,2,1,0.,12.0,0.,12.0,0.,12.0,0.,12.0
1979-07-03 00:33:13.550 ,2,0,0.,12.0,0.,12.0,0.,12.0,0.,12.0
1979-07-03 00:33:25.550 ,2,0,0.,12.0,0.,12.0,0.,12.0,0.,12.0
1979-07-03 00:33:37.550 ,1,1,0.,12.0,0.,12.0,0.,12.0,0.,12.0
1979-07-03 00:33:49.550 ,1,1,0.,12.0,0.,12.0,0.,12.0,0.,12.0
1979-07-03 00:34:01.550 ,1,0,0.,12.0,0.,12.0,0.,12.0,0.,12.0
1979-07-03 00:34:13.550 ,1,0,0.,12.0,0.,12.0,0.,12.0,0.,12.0
1979-07-03 00:34:25.550 ,0,1,0.,12.0,0.,12.0,0.,12.0,0.,12.0
1979-07-03 00:34:37.550 ,0,1,0.,12.0,0.,12.0,0.,12.0,0.,12.0
1979-07-03 00:34:49.550 ,0,0,0.,12.0,0.,12.0,0.,12.0,0.,12.0
1979-07-03 00:35:01.550 ,0,0,0.,12.0,0.,12.0,0.,12.0,0.,12.0
1979-07-03 00:35:13.550 ,0,1,0.,12.0,0.,12.0,0.,12.0,0.,12.0
1979-07-03 00:35:25.550 ,0,1,0.,12.0,0.,12.0,0.,12.0,0.,12.0
1979-07-03 00:35:37.550 ,0,0,0.,12.0,0.,12.0,0.,12.0,0.,12.0
1979-07-03 00:35:49.550 ,0,0,0.,12.0,0.,12.0,0.,12.0,0.,12.0
1979-07-03 00:36:01.550 ,1,1,0.,12.0,0.,12.0,0.,12.0,0.,12.0
1979-07-03 00:36:13.550 ,1,1,0.,12.0,0.,12.0,0.,12.0,0.,12.0
1979-07-03 00:36:25.550 ,1,0,0.,12.0,0.,12.0,0.,12.0,0.,12.0
1979-07-03 00:36:37.550 ,1,0,0.,12.0,0.,12.0,0.,12.0,0.,12.0
1979-07-03 00:36:49.550 ,2,1,0.,12.0,0.,12.0,0.,12.0,0.,12.0
1979-07-03 00:37:01.550 ,2,1,0.,12.0,0.,12.0,0.,12.0,0.,12.0
1979-07-03 00:37:13.550 ,2,0,0.,12.0,0.,12.0,0.,12.0,0.,12.0
1979-07-03 00:37:25.550 ,2,0,0.,12.0,0.,12.0,0.,12.0,0.,12.0
1979-07-03 00:37:37.550 ,3,1,0.,12.0,0.,12.0,0.,12.0,0.,12.0
1979-07-03 00:37:49.550 ,3,1,0.,12.0,0.,12.0,0.,12.0,0.,12.0
1979-07-03 00:38:01.550 ,3,0,0.,12.0,0.,12.0,0.,12.0,0.,12.0
1979-07-03 00:38:13.550 ,3,0,0.,12.0,0.,12.0,0.,12.0,0.,12.0
1979-07-03 00:38:25.550 ,4,1,0.,12.0,0.,12.0,0.,12.0,0.,12.0
1979-07-03 00:38:37.550 ,4,1,0.,12.0,0.,12.0,0.,12.0,0.,12.0
1979-07-03 00:38:49.550 ,4,0,0.,12.0,0.,12.0,0.,12.0,0.,12.0
1979-07-03 00:39:01.550 ,4,0,0.,12.0,0.,12.0,0.,12.0,0.,12.0
1979-07-03 00:39:13.550 ,5,1,0.,12.0,0.,12.0,0.,12.0,0.,12.0
1979-07-03 00:39:25.550 ,5,1,0.,12.0,0.,12.0,0.,12.0,0.,12.0
1979-07-03 00:39:37.550 ,5,0,0.,12.0,0.,12.0,0.,12.0,0.,12.0
1979-07-03 00:39:49.550 ,5,0,0.,12.0,0.,12.0,0.,12.0,0.,12.0
1979-07-03 00:40:01.550 ,6,1,0.,12.0,0.,12.0,0.,12.0,0.,12.0
1979-07-03 00:40:13.550 ,6,1,0.,12.0,0.,12.0,0.,12.0,0.,12.0
1979-07-03 00:40:25.550 ,6,0,0.,12.0,0.,12.0,0.,12.0,0.,12.0
1979-07-03 00:40:37.550 ,6,0,0.,12.0,0.,12.0,0.,12.0,0.,12.0
1979-07-03 00:40:49.550 ,7,1,0.,12.0,0.,12.0,0.,12.0,0.,12.0
1979-07-03 00:41:01.550 ,7,1,0.,12.0,0.,12.0,0.,12.0,0.,12.0
1979-07-03 00:41:13.550 ,7,0,0.,12.0,0.,12.0,0.,12.0,0.,12.0
1979-07-03 00:41:25.550 ,7,0,0.,12.0,0.,12.0,0.,12.0,0.,12.0
1979-07-03 00:41:37.550 ,7,1,0.,12.0,0.,12.0,0.,12.0,0.,12.0
1979-07-03 00:41:49.550 ,7,1,0.,12.0,0.,12.0,0.,12.0,0.,12.0
1979-07-03 00:42:01.550 ,7,0,0.,12.0,0.,12.0,0.,12.0,0.,12.0
1979-07-03 00:42:13.550 ,7,0,0.,12.0,0.,12.0,0.,12.0,0.,12.0
1979-07-03 00:42:25.550 ,6,1,0.,12.0,0.,12.0,0.,12.0,0.,12.0
1979-07-03 00:42:37.550 ,6,1,0.,12.0,0.,12.0,0.,12.0,0.,12.0
1979-07-03 00:42:49.550 ,6,0,0.,12.0,0.,12.0,0.,12.0,0.,12.0
1979-07-03 00:43:01.550 ,6,0,0.,12.0,0.,12.0,0.,12.0,0.,12.0
1979-07-03 00:43:13.550 ,5,1,0.,12.0,0.,12.0,0.,12.0,0.,12.0
1979-07-03 00:43:25.550 ,5,1,0.,12.0,0.,12.0,0.,12.0,0.,12.0
1979-07-03 00:43:37.550 ,5,0,0.,12.0,0.,12.0,0.,12.0,0.,12.0
1979-07-03 00:43:49.550 ,5,0,0.,12.0,0.,12.0,0.,12.0,0.,12.0
1979-07-03 00:44:49.550 ,0,0,0.,12.0,0.,12.0,0.,12.0,0.,12.0
1979-07-03 00:45:01.550 ,0,0,0.,12.0,0.,12.0,0.,12.0,0.,12.0
1979-07-03 00:45:13.550 ,0,0,0.,12.0,0.,12.0,0.,12.0,0.,12.0
1979-07-03 00:45:25.550 ,0,0,0.,12.0,0.,12.0,0.,12.0,0.,12.0
1979-07-03 00:46:25.550 ,0,0,0.,12.0,0.,12.0,0.,12.0,0.,12.0
1979-07-03 00:46:37.550 ,0,0,0.,12.0,0.,12.0,0.,12.0,0.,12.0
1979-07-03 00:46:49.550 ,0,0,0.,12.0,0.,12.0,0.,12.0,0.,12.0
1979-07-03 00:47:01.550 ,0,0,0.,12.0,0.,12.0,0.,12.0,0.,12.0
1979-07-03 00:47:13.550 ,0,1,0.,12.0,0.,12.0,0.,12.0,0.,12.0
1979-07-03 00:47:25.550 ,0,1,0.,12.0,0.,12.0,0.,12.0,0.,12.0
1979-07-03 00:47:37.550 ,0,0,0.,12.0,0.,12.0,0.,12.0,0.,12.0
1979-07-03 00:47:49.550 ,0,0,0.,12.0,0.,12.0,0.,12.0,0.,12.0
1979-07-03 00:48:01.550 ,0,1,0.,12.0,0.,12.0,0.,12.0,0.,12.0
1979-07-03 00:48:13.550 ,0,1,0.,12.0,0.,12.0,0.,12.0,0.,12.0
1979-07-03 00:48:25.550 ,0,0,0.,12.0,0.,12.0,0.,12.0,0.,12.0
1979-07-03 00:48:37.550 ,0,0,0.,12.0,0.,12.0,0.,12.0,0.,12.0
1979-07-03 00:48:49.550 ,1,1,0.,12.0,0.,12.0,0.,12.0,0.,12.0
1979-07-03 00:49:01.550 ,1,1,0.,12.0,0.,12.0,0.,12.0,0.,12.0
1979-07-03 00:49:13.550 ,1,0,0.,12.0,0.,12.0,0.,12.0,0.,12.0
1979-07-03 00:49:25.550 ,1,0,0.,12.0,0.,12.0,0.,12.0,0.,12.0
1979-07-03 00:49:37.550 ,2,1,0.,12.0,0.,12.0,0.,12.0,0.,12.0
1979-07-03 00:49:49.550 ,2,1,0.,12.0,0.,12.0,0.,12.0,0.,12.0
1979-07-03 00:50:01.550 ,2,0,0.,12.0,0.,12.0,0.,12.0,0.,12.0
1979-07-03 00:50:13.550 ,2,0,0.,12.0,0.,12.0,0.,12.0,0.,12.0
1979-07-03 00:50:25.550 ,3,1,0.,12.0,0.,12.0,0.,12.0,0.,12.0
1979-07-03 00:50:37.550 ,3,1,0.,12.0,0.,12.0,0.,12.0,0.,12.0
1979-07-03 00:50:49.550 ,3,0,0.,12.0,0.,12.0,0.,12.0,0.,12.0
1979-07-03 00:51:01.550 ,3,0,0.,12.0,0.,12.0,0.,12.0,0.,12.0
1979-07-03 00:51:13.550 ,4,1,0.,12.0,0.,12.0,0.,12.0,0.,12.0
1979-07-03 00:51:25.550 ,4,1,0.,12.0,0.,12.0,0.,12.0,0.,12.0
1979-07-03 00:51:37.550 ,4,0,0.,12.0,0.,12.0,0.,12.0,0.,12.0
1979-07-03 00:51:49.550 ,4,0,0.,12.0,0.,12.0,0.,12.0,0.,12.0
1979-07-03 00:52:01.550 ,5,1,0.,12.0,0.,12.0,0.,12.0,0.,12.0
1979-07-03 00:52:13.550 ,5,1,0.,12.0,0.,12.0,0.,12.0,0.,12.0
1979-07-03 00:52:25.550 ,5,0,0.,12.0,0.,12.0,0.,12.0,0.,12.0
1979-07-03 00:52:37.550 ,5,0,0.,12.0,0.,12.0,0.,12.0,0.,12.0
1979-07-03 00:52:49.550 ,6,1,0.,12.0,0.,12.0,0.,12.0,0.,12.0
1979-07-03 00:53:01.550 ,6,1,0.,12.0,0.,12.0,0.,12.0,0.,12.0
1979-07-03 00:53:13.550 ,6,0,0.,12.0,0.,12.0,0.,12.0,0.,12.0
1979-07-03 00:53:25.550 ,6,0,0.,12.0,0.,12.0,0.,12.0,0.,12.0
1979-07-03 00:53:37.550 ,7,1,0.,12.0,0.,12.0,0.,12.0,0.,12.0
1979-07-03 00:53:49.550 ,7,1,0.,12.0,0.,12.0,0.,12.0,0.,12.0
1979-07-03 00:54:01.550 ,7,0,0.,12.0,0.,12.0,0.,12.0,0.,12.0
1979-07-03 00:54:13.550 ,7,0,0.,12.0,0.,12.0,0.,12.0,0.,12.0
1979-07-03 00:54:25.550 ,7,1,0.,12.0,0.,12.0,0.,12.0,0.,12.0
1979-07-03 00:54:37.550 ,7,1,0.,12.0,0.,12.0,0.,12.0,0.,12.0
1979-07-03 00:54:49.550 ,7,0,0.,12.0,0.,12.0,0.,12.0,0.,12.0
1979-07-03 00:55:01.550 ,7,0,0.,12.0,0.,12.0,0.,12.0,0.,12.0
1979-07-03 00:55:13.550 ,6,1,0.,12.0,0.,12.0,0.,12.0,0.,12.0
1979-07-03 00:55:25.550 ,6,1,0.,12.0,0.,12.0,0.,12.0,0.,12.0
1979-07-03 00:55:37.550 ,6,0,0.,12.0,0.,12.0,0.,12.0,0.,12.0
1979-07-03 00:55:49.550 ,6,0,0.,12.0,0.,12.0,0.,12.0,0.,12.0
1979-07-03 00:56:01.550 ,5,1,0.,12.0,0.,12.0,0.,12.0,0.,12.0
1979-07-03 00:56:13.550 ,5,1,0.,12.0,0.,12.0,0.,12.0,0.,12.0
1979-07-03 00:56:25.550 ,5,0,0.,12.0,0.,12.0,0.,12.0,0.,12.0
1979-07-03 00:56:37.550 ,5,0,0.,12.0,0.,12.0,0.,12.0,0.,12.0
1979-07-03 00:56:49.550 ,4,1,0.,12.0,0.,12.0,0.,12.0,0.,12.0
1979-07-03 00:57:01.550 ,4,1,0.,12.0,0.,12.0,0.,12.0,0.,12.0
1979-07-03 00:57:13.550 ,4,0,0.,12.0,0.,12.0,0.,12.0,0.,12.0
1979-07-03 00:57:25.550 ,4,0,0.,12.0,0.,12.0,0.,12.0,0.,12.0
1979-07-03 00:57:37.550 ,3,1,0.,12.0,0.,12.0,0.,12.0,0.,12.0
1979-07-03 00:57:49.550 ,3,1,0.,12.0,0.,12.0,0.,12.0,0.,12.0
1979-07-03 00:58:01.550 ,3,0,0.,12.0,0.,12.0,0.,12.0,0.,12.0
1979-07-03 00:58:13.550 ,3,0,0.,12.0,0.,12.0,0.,12.0,0.,12.0
1979-07-03 00:58:25.550 ,2,1,0.,12.0,0.,12.0,0.,12.0,0.,12.0
1979-07-03 00:58:37.550 ,2,1,0.,12.0,0.,12.0,0.,12.0,0.,12.0
1979-07-03 00:58:49.550 ,2,0,0.,12.0,0.,12.0,0.,12.0,0.,12.0
1979-07-03 00:59:01.550 ,2,0,1.,12.0,0.,12.0,0.,12.0,0.,12.0
1979-07-03 00:59:13.550 ,1,1,0.,12.0,0.,12.0,0.,12.0,0.,12.0
1979-07-03 00:59:25.550 ,1,1,0.,12.0,0.,12.0,0.,12.0,0.,12.0
1979-07-03 00:59:37.550 ,1,0,0.,12.0,0.,12.0,0.,12.0,0.,12.0
1979-07-03 00:59:49.550 ,1,0,0.,12.0,0.,12.0,0.,12.0,0.,12.0
1979-07-03 01:00:01.550 ,0,1,0.,12.0,0.,12.0,0.,12.0,0.,12.0
1979-07-03 01:00:13.550 ,0,1,0.,12.0,0.,12.0,0.,12.0,0.,12.0
1979-07-03 01:00:25.550 ,0,0,0.,12.0,0.,12.0,0.,12.0,0.,12.0
1979-07-03 01:00:37.550 ,0,0,0.,12.0,0.,12.0,0.,12.0,0.,12.0
1979-07-03 01:00:49.550 ,0,1,0.,12.0,0.,12.0,0.,12.0,0.,12.0
1979-07-03 01:01:01.550 ,0,1,0.,12.0,0.,12.0,0.,12.0,0.,12.0
1979-07-03 01:01:13.550 ,0,0,0.,12.0,0.,12.0,0.,12.0,0.,12.0
1979-07-03 01:01:25.550 ,0,0,0.,12.0,0.,12.0,0.,12.0,0.,12.0
1979-07-03 01:01:37.550 ,1,1,0.,12.0,0.,12.0,0.,12.0,0.,12.0
1979-07-03 01:01:49.550 ,1,1,0.,12.0,0.,12.0,0.,12.0,0.,12.0
1979-07-03 01:02:01.550 ,1,0,0.,12.0,0.,12.0,0.,12.0,0.,12.0
1979-07-03 01:02:13.550 ,1,0,0.,12.0,0.,12.0,0.,12.0,0.,12.0
1979-07-03 01:02:25.550 ,2,1,0.,12.0,0.,12.0,0.,12.0,0.,12.0
1979-07-03 01:02:37.550 ,2,1,0.,12.0,0.,12.0,0.,12.0,0.,12.0
1979-07-03 01:02:49.550 ,2,0,0.,12.0,0.,12.0,0.,12.0,0.,12.0
1979-07-03 01:03:01.550 ,2,0,0.,12.0,0.,12.0,0.,12.0,0.,12.0
1979-07-03 01:03:13.550 ,3,1,0.,12.0,0.,12.0,0.,12.0,0.,12.0
1979-07-03 01:03:25.550 ,3,1,0.,12.0,0.,12.0,0.,12.0,0.,12.0
1979-07-03 01:03:37.550 ,3,0,0.,12.0,0.,12.0,0.,12.0,0.,12.0
1979-07-03 01:03:49.550 ,3,0,0.,12.0,0.,12.0,0.,12.0,0.,12.0
1979-07-03 01:04:01.550 ,4,1,0.,12.0,0.,12.0,0.,12.0,0.,12.0
1979-07-03 01:04:13.550 ,4,1,0.,12.0,0.,12.0,0.,12.0,0.,12.0
1979-07-03 01:04:25.550 ,4,0,0.,12.0,0.,12.0,0.,12.0,0.,12.0
1979-07-03 01:04:37.550 ,4,0,0.,12.0,0.,12.0,0.,12.0,0.,12.0
1979-07-03 01:04:49.550 ,5,1,0.,12.0,0.,12.0,0.,12.0,0.,12.0
1979-07-03 01:05:01.550 ,5,1,0.,12.0,0.,12.0,0.,12.0,0.,12.0
1979-07-03 01:05:13.550 ,5,0,0.,12.0,0.,12.0,0.,12.0,0.,12.0
1979-07-03 01:05:25.550 ,5,0,0.,12.0,0.,12.0,0.,12.0,0.,12.0
1979-07-03 01:05:37.550 ,6,1,0.,12.0,0.,12.0,0.,12.0,0.,12.0
1979-07-03 01:05:49.550 ,6,1,0.,12.0,0.,12.0,0.,12.0,0.,12.0
1979-07-03 01:06:01.550 ,6,0,0.,12.0,0.,12.0,0.,12.0,0.,12.0
1979-07-03 01:06:13.550 ,6,0,0.,12.0,0.,12.0,0.,12.0,0.,12.0
1979-07-03 01:06:25.550 ,7,0,0.,12.0,0.,12.0,0.,12.0,0.,12.0
1979-07-03 01:06:37.550 ,7,0,0.,12.0,0.,12.0,0.,12.0,0.,12.0
1979-07-03 01:06:49.550 ,7,0,0.,12.0,0.,12.0,0.,12.0,0.,12.0
1979-07-03 01:07:01.550 ,7,0,0.,12.0,0.,12.0,0.,12.0,0.,12.0
1979-07-03 01:07:13.550 ,4,1,0.,12.0,0.,12.0,0.,12.0,0.,12.0
1979-07-03 01:07:25.550 ,4,1,0.,12.0,0.,12.0,0.,12.0,0.,12.0
1979-07-03 01:07:37.550 ,0,1,0.,12.0,0.,12.0,0.,12.0,0.,12.0
1979-07-03 01:07:49.550 ,0,1,0.,12.0,0.,12.0,0.,12.0,0.,12.0
1979-07-03 01:08:01.550 ,3,1,0.,12.0,0.,12.0,0.,12.0,0.,12.0
1979-07-03 01:08:13.550 ,3,1,0.,12.0,0.,12.0,0.,12.0,0.,12.0
1979-07-03 01:08:25.550 ,7,1,0.,12.0,0.,12.0,0.,12.0,0.,12.0
1979-07-03 01:08:37.550 ,7,1,0.,12.0,0.,12.0,0.,12.0,0.,12.0
1979-07-03 01:08:49.550 ,4,1,0.,12.0,0.,12.0,0.,12.0,0.,12.0
1979-07-03 01:09:01.550 ,4,1,0.,12.0,0.,12.0,0.,12.0,0.,12.0
1979-07-03 01:09:13.550 ,0,1,0.,12.0,0.,12.0,0.,12.0,0.,12.0
1979-07-03 01:09:25.550 ,0,1,0.,12.0,0.,12.0,0.,12.0,0.,12.0
1979-07-03 01:09:37.550 ,3,1,0.,12.0,0.,12.0,0.,12.0,0.,12.0
1979-07-03 01:09:49.550 ,3,1,0.,12.0,0.,12.0,0.,12.0,0.,12.0
1979-07-03 01:10:01.550 ,7,1,0.,12.0,0.,12.0,0.,12.0,0.,12.0
1979-07-03 01:10:13.550 ,7,1,0.,12.0,0.,12.0,0.,12.0,0.,12.0
1979-07-03 01:10:25.550 ,4,1,0.,12.0,0.,12.0,0.,12.0,0.,12.0
1979-07-03 01:10:37.550 ,4,1,0.,12.0,0.,12.0,0.,12.0,0.,12.0
1979-07-03 01:10:49.550 ,0,1,0.,12.0,0.,12.0,0.,12.0,0.,12.0
1979-07-03 01:11:01.550 ,0,1,0.,12.0,0.,12.0,0.,12.0,0.,12.0
1979-07-03 01:11:13.550 ,3,1,0.,12.0,0.,12.0,0.,12.0,0.,12.0
1979-07-03 01:11:25.550 ,3,1,0.,12.0,0.,12.0,0.,12.0,0.,12.0
1979-07-03 01:11:37.550 ,7,1,0.,12.0,0.,12.0,0.,12.0,0.,12.0
1979-07-03 01:11:49.550 ,7,1,0.,12.0,0.,12.0,0.,12.0,0.,12.0
1979-07-03 01:12:01.550 ,4,1,0.,12.0,0.,12.0,0.,12.0,0.,12.0
1979-07-03 01:12:13.550 ,4,1,0.,12.0,0.,12.0,0.,12.0,0.,12.0
1979-07-03 01:12:25.550 ,0,1,0.,12.0,0.,12.0,0.,12.0,0.,12.0
1979-07-03 01:12:37.550 ,0,1,0.,12.0,0.,12.0,0.,12.0,0.,12.0
1979-07-03 01:12:49.550 ,3,1,0.,12.0,0.,12.0,0.,12.0,0.,12.0
1979-07-03 01:13:01.550 ,3,1,0.,12.0,0.,12.0,0.,12.0,0.,12.0
1979-07-03 01:13:13.550 ,7,1,0.,12.0,0.,12.0,0.,12.0,0.,12.0
1979-07-03 01:13:25.550 ,7,1,0.,12.0,0.,12.0,0.,12.0,0.,12.0
1979-07-03 01:13:37.550 ,4,1,0.,12.0,0.,12.0,0.,12.0,0.,12.0
1979-07-03 01:13:49.550 ,4,1,0.,12.0,0.,12.0,0.,12.0,0.,12.0
1979-07-03 01:14:01.550 ,0,1,0.,12.0,0.,12.0,0.,12.0,0.,12.0
1979-07-03 01:14:13.550 ,0,1,0.,12.0,0.,12.0,0.,12.0,0.,12.0
1979-07-03 01:14:25.550 ,3,1,0.,12.0,0.,12.0,0.,12.0,0.,12.0
1979-07-03 01:14:37.550 ,3,1,0.,12.0,0.,12.0,0.,12.0,0.,12.0
1979-07-03 01:14:49.550 ,7,1,0.,12.0,0.,12.0,0.,12.0,0.,12.0
1979-07-03 01:15:01.550 ,7,1,0.,12.0,0.,12.0,0.,12.0,0.,12.0
1979-07-03 01:15:13.550 ,4,1,0.,12.0,0.,12.0,0.,12.0,0.,12.0
1979-07-03 01:15:25.550 ,4,1,0.,12.0,0.,12.0,0.,12.0,0.,12.0
1979-07-03 01:15:37.550 ,0,1,0.,12.0,0.,12.0,0.,12.0,0.,12.0
1979-07-03 01:15:49.550 ,0,1,0.,12.0,0.,12.0,1.,12.0,0.,12.0
1979-07-03 01:16:01.550 ,3,1,1.,12.0,0.,12.0,0.,12.0,0.,12.0
1979-07-03 01:16:13.550 ,3,1,0.,12.0,0.,12.0,0.,12.0,0.,12.0
1979-07-03 01:16:25.550 ,7,1,0.,12.0,0.,12.0,0.,12.0,0.,12.0
1979-07-03 01:16:37.550 ,7,1,0.,12.0,0.,12.0,0.,12.0,0.,12.0
1979-07-03 01:16:49.550 ,4,1,0.,12.0,0.,12.0,0.,12.0,0.,12.0
1979-07-03 01:17:01.550 ,4,1,0.,12.0,0.,12.0,0.,12.0,0.,12.0
1979-07-03 01:17:13.550 ,0,1,0.,12.0,0.,12.0,0.,12.0,0.,12.0
1979-07-03 01:17:25.550 ,0,1,0.,12.0,0.,12.0,0.,12.0,0.,12.0
1979-07-03 01:17:37.550 ,0,0,0.,12.0,0.,12.0,0.,12.0,0.,12.0
1979-07-03 01:17:49.550 ,0,0,0.,12.0,0.,12.0,0.,12.0,0.,12.0
1979-07-03 01:18:01.550 ,0,0,0.,12.0,0.,12.0,0.,12.0,0.,12.0
1979-07-03 01:18:13.550 ,0,0,0.,12.0,0.,12.0,0.,12.0,0.,12.0
1979-07-03 01:18:25.550 ,5,1,0.,12.0,0.,12.0,0.,12.0,0.,12.0
1979-07-03 01:18:37.550 ,5,1,0.,12.0,0.,12.0,0.,12.0,0.,12.0
1979-07-03 01:18:49.550 ,5,0,0.,12.0,0.,12.0,0.,12.0,0.,12.0
1979-07-03 01:19:01.550 ,5,0,0.,12.0,0.,12.0,0.,12.0,0.,12.0
1979-07-03 01:19:13.550 ,4,1,0.,12.0,0.,12.0,0.,12.0,0.,12.0
1979-07-03 01:19:25.550 ,4,1,0.,12.0,0.,12.0,0.,12.0,0.,12.0
1979-07-03 01:19:37.550 ,4,0,0.,12.0,0.,12.0,0.,12.0,0.,12.0
1979-07-03 01:19:49.550 ,4,0,0.,12.0,0.,12.0,0.,12.0,0.,12.0